Location: Unspecified
(0.0000°N, 0.0000°E)
Time: 00:22:35
(UTC+00:00)

N. Korean satellite - Pass Details

Date: 18 January 2021
Orbit: 453 x 502 km, 97.2° (Epoch: 16 January)

Event Time Altitude Azimuth Distance (km) Brightness Sun altitude
Rises 04:55:09 0° 16° (NNE) 2,461 10.1 -17.6°
Reaches altitude 10° 04:57:11 10° 19° (NNE) 1,586 9.1 -17.1°
Maximum altitude 05:00:33 63° 101° (E) 508 6.9 -16.3°
Drops below altitude 10° 05:03:55 10° 183° (S) 1,586 9.4 -15.5°
Sets 05:05:58 0° 186° (S) 2,461 10.4 -15.1°
